Year,Month,Day,Hour,Minute,Value (Times are PST for temperature in C)
2015,05,23,00,00,11.60
2015,05,23,00,01,11.60
2015,05,23,00,02,11.60
2015,05,23,00,03,11.60
2015,05,23,00,04,11.60
2015,05,23,00,05,11.50
2015,05,23,00,06,11.60
2015,05,23,00,07,11.60
2015,05,23,00,08,11.60
2015,05,23,00,09,11.60
2015,05,23,00,10,11.60
2015,05,23,00,11,11.60
2015,05,23,00,12,11.60
2015,05,23,00,13,11.60
2015,05,23,00,14,11.60
2015,05,23,00,15,11.70
2015,05,23,00,16,11.70
2015,05,23,00,17,11.70
2015,05,23,00,18,11.70
2015,05,23,00,19,11.70
2015,05,23,00,20,11.70
2015,05,23,00,21,11.70
2015,05,23,00,22,11.70
2015,05,23,00,23,11.70
2015,05,23,00,24,11.70
2015,05,23,00,25,11.70
2015,05,23,00,26,11.70
2015,05,23,00,27,11.70
2015,05,23,00,28,11.70
2015,05,23,00,29,11.70
2015,05,23,00,30,11.70
2015,05,23,00,31,11.70
2015,05,23,00,32,11.70
2015,05,23,00,33,11.70
2015,05,23,00,34,11.70
2015,05,23,00,35,11.70
2015,05,23,00,36,11.60
2015,05,23,00,37,11.60
2015,05,23,00,38,11.60
2015,05,23,00,39,11.60
2015,05,23,00,40,11.60
2015,05,23,00,41,11.60
2015,05,23,00,42,11.60
2015,05,23,00,43,11.60
2015,05,23,00,44,11.60
2015,05,23,00,45,11.70
2015,05,23,00,46,11.70
2015,05,23,00,47,11.70
2015,05,23,00,48,11.70
2015,05,23,00,49,11.80
2015,05,23,00,50,11.80
2015,05,23,00,51,11.80
2015,05,23,00,52,11.80
2015,05,23,00,53,11.80
2015,05,23,00,54,11.80
2015,05,23,00,55,11.80
2015,05,23,00,56,11.80
2015,05,23,00,57,11.90
2015,05,23,00,58,11.90
2015,05,23,00,59,11.90
2015,05,23,01,00,11.90
2015,05,23,01,01,11.90
2015,05,23,01,02,11.90
2015,05,23,01,03,11.90
2015,05,23,01,04,11.90
2015,05,23,01,05,11.90
2015,05,23,01,06,11.90
2015,05,23,01,07,11.90
2015,05,23,01,08,11.90
2015,05,23,01,09,11.90
2015,05,23,01,10,11.90
2015,05,23,01,11,11.90
2015,05,23,01,12,11.90
2015,05,23,01,13,11.90
2015,05,23,01,14,11.90
2015,05,23,01,15,11.90
2015,05,23,01,16,11.80
2015,05,23,01,17,11.80
2015,05,23,01,18,11.80
2015,05,23,01,19,11.80
2015,05,23,01,20,11.80
2015,05,23,01,21,11.80
2015,05,23,01,22,11.70
2015,05,23,01,23,11.70
2015,05,23,01,24,11.70
2015,05,23,01,25,11.60
2015,05,23,01,26,11.60
2015,05,23,01,27,11.60
2015,05,23,01,28,11.60
2015,05,23,01,29,11.60
2015,05,23,01,30,11.50
2015,05,23,01,31,11.50
2015,05,23,01,32,11.50
2015,05,23,01,33,11.50
2015,05,23,01,34,11.50
2015,05,23,01,35,11.50
2015,05,23,01,36,11.50
2015,05,23,01,37,11.50
2015,05,23,01,38,11.60
2015,05,23,01,39,11.60
2015,05,23,01,40,11.60
2015,05,23,01,41,11.60
2015,05,23,01,42,11.60
2015,05,23,01,43,11.60
2015,05,23,01,44,11.60
2015,05,23,01,45,11.60
2015,05,23,01,46,11.60
2015,05,23,01,47,11.60
2015,05,23,01,48,11.60
2015,05,23,01,49,11.60
2015,05,23,01,50,11.60
2015,05,23,01,51,11.60
2015,05,23,01,52,11.60
2015,05,23,01,53,11.60
2015,05,23,01,54,11.60
2015,05,23,01,55,11.60
2015,05,23,01,56,11.60
2015,05,23,01,57,11.60
2015,05,23,01,58,11.60
2015,05,23,01,59,11.60
2015,05,23,02,00,11.60
2015,05,23,02,01,11.60
2015,05,23,02,02,11.60
2015,05,23,02,03,11.60
2015,05,23,02,04,11.60
2015,05,23,02,05,11.60
2015,05,23,02,06,11.60
2015,05,23,02,07,11.60
2015,05,23,02,08,11.60
2015,05,23,02,09,11.50
2015,05,23,02,10,11.50
2015,05,23,02,11,11.50
2015,05,23,02,12,11.50
2015,05,23,02,13,11.50
2015,05,23,02,14,11.40
2015,05,23,02,15,11.40
2015,05,23,02,16,11.40
2015,05,23,02,17,11.40
2015,05,23,02,18,11.40
2015,05,23,02,19,11.30
2015,05,23,02,20,11.30
2015,05,23,02,21,11.30
2015,05,23,02,22,11.30
2015,05,23,02,23,11.30
2015,05,23,02,24,11.20
2015,05,23,02,25,11.20
2015,05,23,02,26,11.20
2015,05,23,02,27,11.20
2015,05,23,02,28,11.10
2015,05,23,02,29,11.10
2015,05,23,02,30,11.10
2015,05,23,02,31,11.00
2015,05,23,02,32,11.00
2015,05,23,02,33,11.00
2015,05,23,02,34,10.90
2015,05,23,02,35,10.90
2015,05,23,02,36,10.90
2015,05,23,02,37,10.90
2015,05,23,02,38,10.90
2015,05,23,02,39,10.80
2015,05,23,02,40,10.80
2015,05,23,02,41,10.80
2015,05,23,02,42,10.80
2015,05,23,02,43,10.80
2015,05,23,02,44,10.80
2015,05,23,02,45,10.80
2015,05,23,02,46,10.80
2015,05,23,02,47,10.80
2015,05,23,02,48,10.80
2015,05,23,02,49,10.80
2015,05,23,02,50,10.80
2015,05,23,02,51,10.80
2015,05,23,02,52,10.80
2015,05,23,02,53,10.80
2015,05,23,02,54,10.80
2015,05,23,02,55,10.80
2015,05,23,02,56,10.80
2015,05,23,02,57,10.80
2015,05,23,02,58,10.80
2015,05,23,02,59,10.80
2015,05,23,03,00,10.80
2015,05,23,03,01,10.80
2015,05,23,03,02,10.80
2015,05,23,03,03,10.80
2015,05,23,03,04,10.80
2015,05,23,03,05,10.80
2015,05,23,03,06,10.80
2015,05,23,03,07,10.80
2015,05,23,03,08,10.80
2015,05,23,03,09,10.80
2015,05,23,03,10,10.80
2015,05,23,03,11,10.80
2015,05,23,03,12,10.80
2015,05,23,03,13,10.80
2015,05,23,03,14,10.70
2015,05,23,03,15,10.70
2015,05,23,03,16,10.70
2015,05,23,03,17,10.70
2015,05,23,03,18,10.70
2015,05,23,03,19,10.70
2015,05,23,03,20,10.70
2015,05,23,03,21,10.70
2015,05,23,03,22,10.70
2015,05,23,03,23,10.70
2015,05,23,03,24,10.70
2015,05,23,03,25,10.70
2015,05,23,03,26,10.70
2015,05,23,03,27,10.70
2015,05,23,03,28,10.70
2015,05,23,03,29,10.70
2015,05,23,03,30,10.70
2015,05,23,03,31,10.70
2015,05,23,03,32,10.70
2015,05,23,03,33,10.60
2015,05,23,03,34,10.60
2015,05,23,03,35,10.60
2015,05,23,03,36,10.60
2015,05,23,03,37,10.60
2015,05,23,03,38,10.60
2015,05,23,03,39,10.60
2015,05,23,03,40,10.60
2015,05,23,03,41,10.60
2015,05,23,03,42,10.60
2015,05,23,03,43,10.60
2015,05,23,03,44,10.60
2015,05,23,03,45,10.60
2015,05,23,03,46,10.60
2015,05,23,03,47,10.60
2015,05,23,03,48,10.60
2015,05,23,03,49,10.60
2015,05,23,03,50,10.60
2015,05,23,03,51,10.60
2015,05,23,03,52,10.60
2015,05,23,03,53,10.60
2015,05,23,03,54,10.60
2015,05,23,03,55,10.60
2015,05,23,03,56,10.60
2015,05,23,03,57,10.60
2015,05,23,03,58,10.60
2015,05,23,03,59,10.60
2015,05,23,04,00,10.60
2015,05,23,04,01,10.60
2015,05,23,04,02,10.50
2015,05,23,04,03,10.50
2015,05,23,04,04,10.50
2015,05,23,04,05,10.50
2015,05,23,04,06,10.50
2015,05,23,04,07,10.50
2015,05,23,04,08,10.50
2015,05,23,04,09,10.50
2015,05,23,04,10,10.50
2015,05,23,04,11,10.50
2015,05,23,04,12,10.50
2015,05,23,04,13,10.50
2015,05,23,04,14,10.50
2015,05,23,04,15,10.50
2015,05,23,04,16,10.40
2015,05,23,04,17,10.40
2015,05,23,04,18,10.40
2015,05,23,04,19,10.40
2015,05,23,04,20,10.40
2015,05,23,04,21,10.40
2015,05,23,04,22,10.40
2015,05,23,04,23,10.40
2015,05,23,04,24,10.40
2015,05,23,04,25,10.40
2015,05,23,04,26,10.30
2015,05,23,04,27,10.30
2015,05,23,04,28,10.30
2015,05,23,04,29,10.30
2015,05,23,04,30,10.30
2015,05,23,04,31,10.30
2015,05,23,04,32,10.30
2015,05,23,04,33,10.30
2015,05,23,04,34,10.30
2015,05,23,04,35,10.30
2015,05,23,04,36,10.30
2015,05,23,04,37,10.30
2015,05,23,04,38,10.30
2015,05,23,04,39,10.20
2015,05,23,04,40,10.20
2015,05,23,04,41,10.20
2015,05,23,04,42,10.20
2015,05,23,04,43,10.20
2015,05,23,04,44,10.20
2015,05,23,04,45,10.20
2015,05,23,04,46,10.20
2015,05,23,04,47,10.20
2015,05,23,04,48,10.20
2015,05,23,04,49,10.10
2015,05,23,04,50,10.10
2015,05,23,04,51,10.10
2015,05,23,04,52,10.10
2015,05,23,04,53,10.10
2015,05,23,04,54,10.10
2015,05,23,04,55,10.10
2015,05,23,04,56,10.00
2015,05,23,04,57,10.00
2015,05,23,04,58,10.00
2015,05,23,04,59,10.00
2015,05,23,05,00,10.00
2015,05,23,05,01,10.00
2015,05,23,05,02,10.00
2015,05,23,05,03,10.00
2015,05,23,05,04,10.00
2015,05,23,05,05,10.00
2015,05,23,05,06,10.00
2015,05,23,05,07,10.00
2015,05,23,05,08,10.00
2015,05,23,05,09,10.00
2015,05,23,05,10,10.00
2015,05,23,05,11,10.00
2015,05,23,05,12,9.90
2015,05,23,05,13,9.90
2015,05,23,05,14,10.00
2015,05,23,05,15,10.00
2015,05,23,05,16,10.00
2015,05,23,05,17,10.00
2015,05,23,05,18,10.00
2015,05,23,05,19,10.00
2015,05,23,05,20,10.00
2015,05,23,05,21,10.00
2015,05,23,05,22,10.00
2015,05,23,05,23,9.90
2015,05,23,05,24,9.90
2015,05,23,05,25,9.90
2015,05,23,05,26,9.90
2015,05,23,05,27,9.90
2015,05,23,05,28,9.90
2015,05,23,05,29,9.90
2015,05,23,05,30,9.90
2015,05,23,05,31,9.90
2015,05,23,05,32,9.90
2015,05,23,05,33,9.90
2015,05,23,05,34,9.90
2015,05,23,05,35,9.90
2015,05,23,05,36,9.90
2015,05,23,05,37,9.90
2015,05,23,05,38,9.90
2015,05,23,05,39,9.90
2015,05,23,05,40,9.90
2015,05,23,05,41,9.90
2015,05,23,05,42,9.90
2015,05,23,05,43,9.90
2015,05,23,05,44,9.90
2015,05,23,05,45,9.90
2015,05,23,05,46,9.90
2015,05,23,05,47,9.90
2015,05,23,05,48,9.90
2015,05,23,05,49,9.90
2015,05,23,05,50,9.90
2015,05,23,05,51,9.90
2015,05,23,05,52,9.90
2015,05,23,05,53,9.90
2015,05,23,05,54,9.90
2015,05,23,05,55,9.90
2015,05,23,05,56,9.90
2015,05,23,05,57,9.90
2015,05,23,05,58,9.90
2015,05,23,05,59,9.90
2015,05,23,06,00,9.90
2015,05,23,06,01,9.90
2015,05,23,06,02,9.90
2015,05,23,06,03,9.90
2015,05,23,06,04,9.90
2015,05,23,06,05,9.90
2015,05,23,06,06,9.90
2015,05,23,06,07,10.00
2015,05,23,06,08,10.00
2015,05,23,06,09,10.00
2015,05,23,06,10,10.00
2015,05,23,06,11,10.00
2015,05,23,06,12,10.00
2015,05,23,06,13,10.00
2015,05,23,06,14,10.00
2015,05,23,06,15,10.10
2015,05,23,06,16,10.10
2015,05,23,06,17,10.10
2015,05,23,06,18,10.10
2015,05,23,06,19,10.10
2015,05,23,06,20,10.10
2015,05,23,06,21,10.10
2015,05,23,06,22,10.10
2015,05,23,06,23,10.10
2015,05,23,06,24,10.10
2015,05,23,06,25,10.10
2015,05,23,06,26,10.10
2015,05,23,06,27,10.10
2015,05,23,06,28,10.10
2015,05,23,06,29,10.10
2015,05,23,06,30,10.10
2015,05,23,06,31,10.10
2015,05,23,06,32,10.20
2015,05,23,06,33,10.20
2015,05,23,06,34,10.20
2015,05,23,06,35,10.20
2015,05,23,06,36,10.20
2015,05,23,06,37,10.20
2015,05,23,06,38,10.20
2015,05,23,06,39,10.20
2015,05,23,06,40,10.20
2015,05,23,06,41,10.20
2015,05,23,06,42,10.20
2015,05,23,06,43,10.20
2015,05,23,06,44,10.20
2015,05,23,06,45,10.30
2015,05,23,06,46,10.30
2015,05,23,06,47,10.30
2015,05,23,06,48,10.30
2015,05,23,06,49,10.30
2015,05,23,06,50,10.40
2015,05,23,06,51,10.40
2015,05,23,06,52,10.40
2015,05,23,06,53,10.50
2015,05,23,06,54,10.50
2015,05,23,06,55,10.60
2015,05,23,06,56,10.60
2015,05,23,06,57,10.70
2015,05,23,06,58,10.70
2015,05,23,06,59,10.70
2015,05,23,07,00,10.70
2015,05,23,07,01,10.70
2015,05,23,07,02,10.80
2015,05,23,07,03,10.80
2015,05,23,07,04,10.80
2015,05,23,07,05,10.80
2015,05,23,07,06,10.80
2015,05,23,07,07,10.80
2015,05,23,07,08,10.90
2015,05,23,07,09,10.90
2015,05,23,07,10,10.90
2015,05,23,07,11,10.90
2015,05,23,07,12,10.90
2015,05,23,07,13,11.00
2015,05,23,07,14,11.00
2015,05,23,07,15,11.10
2015,05,23,07,16,11.10
2015,05,23,07,17,11.10
2015,05,23,07,18,11.20
2015,05,23,07,19,11.20
2015,05,23,07,20,11.30
2015,05,23,07,21,11.40
2015,05,23,07,22,11.40
2015,05,23,07,23,11.50
2015,05,23,07,24,11.60
2015,05,23,07,25,11.60
2015,05,23,07,26,11.70
2015,05,23,07,27,11.80
2015,05,23,07,28,11.80
2015,05,23,07,29,11.90
2015,05,23,07,30,11.90
2015,05,23,07,31,12.00
2015,05,23,07,32,12.00
2015,05,23,07,33,12.10
2015,05,23,07,34,12.10
2015,05,23,07,35,12.10
2015,05,23,07,36,12.10
2015,05,23,07,37,12.20
2015,05,23,07,38,12.20
2015,05,23,07,39,12.20
2015,05,23,07,40,12.20
2015,05,23,07,41,12.20
2015,05,23,07,42,12.20
2015,05,23,07,43,12.20
2015,05,23,07,44,12.20
2015,05,23,07,45,12.20
2015,05,23,07,46,12.20
2015,05,23,07,47,12.30
2015,05,23,07,48,12.30
2015,05,23,07,49,12.30
2015,05,23,07,50,12.30
2015,05,23,07,51,12.30
2015,05,23,07,52,12.30
2015,05,23,07,53,12.30
2015,05,23,07,54,12.30
2015,05,23,07,55,12.30
2015,05,23,07,56,12.30
2015,05,23,07,57,12.30
2015,05,23,07,58,12.30
2015,05,23,07,59,12.30
2015,05,23,08,00,12.30
2015,05,23,08,01,12.30
2015,05,23,08,02,12.30
2015,05,23,08,03,12.30
2015,05,23,08,04,12.30
2015,05,23,08,05,12.30
2015,05,23,08,06,12.30
2015,05,23,08,07,12.30
2015,05,23,08,08,12.30
2015,05,23,08,09,12.30
2015,05,23,08,10,12.30
2015,05,23,08,11,12.30
2015,05,23,08,12,12.30
2015,05,23,08,13,12.30
2015,05,23,08,14,12.30
2015,05,23,08,15,12.30
2015,05,23,08,16,12.30
2015,05,23,08,17,12.30
2015,05,23,08,18,12.30
2015,05,23,08,19,12.30
2015,05,23,08,20,12.30
2015,05,23,08,21,12.30
2015,05,23,08,22,12.30
2015,05,23,08,23,12.30
2015,05,23,08,24,12.30
2015,05,23,08,25,12.30
2015,05,23,08,26,12.30
2015,05,23,08,27,12.30
2015,05,23,08,28,12.30
2015,05,23,08,29,12.30
2015,05,23,08,30,12.30
2015,05,23,08,31,12.30
2015,05,23,08,32,12.30
2015,05,23,08,33,12.30
2015,05,23,08,34,12.30
2015,05,23,08,35,12.30
2015,05,23,08,36,12.30
2015,05,23,08,37,12.30
2015,05,23,08,38,12.30
2015,05,23,08,39,12.30
2015,05,23,08,40,12.30
2015,05,23,08,41,12.40
2015,05,23,08,42,12.40
2015,05,23,08,43,12.40
2015,05,23,08,44,12.50
2015,05,23,08,45,12.50
2015,05,23,08,46,12.50
2015,05,23,08,47,12.60
2015,05,23,08,48,12.60
2015,05,23,08,49,12.60
2015,05,23,08,50,12.70
2015,05,23,08,51,12.70
2015,05,23,08,52,12.70
2015,05,23,08,53,12.70
2015,05,23,08,54,12.70
2015,05,23,08,55,12.80
2015,05,23,08,56,12.80
2015,05,23,08,57,12.80
2015,05,23,08,58,12.80
2015,05,23,08,59,12.80
2015,05,23,09,00,12.90
2015,05,23,09,01,12.90
2015,05,23,09,02,12.90
2015,05,23,09,03,13.00
2015,05,23,09,04,13.00
2015,05,23,09,05,13.00
2015,05,23,09,06,13.00
2015,05,23,09,07,13.00
2015,05,23,09,08,12.90
2015,05,23,09,09,12.90
2015,05,23,09,10,12.90
2015,05,23,09,11,12.90
2015,05,23,09,12,12.80
2015,05,23,09,13,12.80
2015,05,23,09,14,12.80
2015,05,23,09,15,12.90
2015,05,23,09,16,12.90
2015,05,23,09,17,12.90
2015,05,23,09,18,12.90
2015,05,23,09,19,12.90
2015,05,23,09,20,12.90
2015,05,23,09,21,13.00
2015,05,23,09,22,13.00
2015,05,23,09,23,12.90
2015,05,23,09,24,12.90
2015,05,23,09,25,12.90
2015,05,23,09,26,12.90
2015,05,23,09,27,12.90
2015,05,23,09,28,12.90
2015,05,23,09,29,12.90
2015,05,23,09,30,12.90
2015,05,23,09,31,12.90
2015,05,23,09,32,12.90
2015,05,23,09,33,12.90
2015,05,23,09,34,12.90
2015,05,23,09,35,12.90
2015,05,23,09,36,12.90
2015,05,23,09,37,12.90
2015,05,23,09,38,12.90
2015,05,23,09,39,13.00
2015,05,23,09,40,13.00
2015,05,23,09,41,13.00
2015,05,23,09,42,13.00
2015,05,23,09,43,13.10
2015,05,23,09,44,13.10
2015,05,23,09,45,13.20
2015,05,23,09,46,13.20
2015,05,23,09,47,13.20
2015,05,23,09,48,13.20
2015,05,23,09,49,13.20
2015,05,23,09,50,13.20
2015,05,23,09,51,13.10
2015,05,23,09,52,13.10
2015,05,23,09,53,13.10
2015,05,23,09,54,13.10
2015,05,23,09,55,13.10
2015,05,23,09,56,13.10
2015,05,23,09,57,13.10
2015,05,23,09,58,13.10
2015,05,23,09,59,13.10
2015,05,23,10,00,13.10
2015,05,23,10,01,13.20
2015,05,23,10,02,13.10
2015,05,23,10,03,13.10
2015,05,23,10,04,13.10
2015,05,23,10,05,13.20
2015,05,23,10,06,13.20
2015,05,23,10,07,13.20
2015,05,23,10,08,13.20
2015,05,23,10,09,13.20
2015,05,23,10,10,13.20
2015,05,23,10,11,13.10
2015,05,23,10,12,13.10
2015,05,23,10,13,13.20
2015,05,23,10,14,13.20
2015,05,23,10,15,13.20
2015,05,23,10,16,13.20
2015,05,23,10,17,13.30
2015,05,23,10,18,13.30
2015,05,23,10,19,13.30
2015,05,23,10,20,13.30
2015,05,23,10,21,13.30
2015,05,23,10,22,13.30
2015,05,23,10,23,13.30
2015,05,23,10,24,13.30
2015,05,23,10,25,13.30
2015,05,23,10,26,13.30
2015,05,23,10,27,13.30
2015,05,23,10,28,13.30
2015,05,23,10,29,13.20
2015,05,23,10,30,13.20
2015,05,23,10,31,13.10
2015,05,23,10,32,13.00
2015,05,23,10,33,12.90
2015,05,23,10,34,12.80
2015,05,23,10,35,12.80
2015,05,23,10,36,12.70
2015,05,23,10,37,12.70
2015,05,23,10,38,12.70
2015,05,23,10,39,12.70
2015,05,23,10,40,12.70
2015,05,23,10,41,12.70
2015,05,23,10,42,12.70
2015,05,23,10,43,12.70
2015,05,23,10,44,12.70
2015,05,23,10,45,12.80
2015,05,23,10,46,12.80
2015,05,23,10,47,12.80
2015,05,23,10,48,12.80
2015,05,23,10,49,12.90
2015,05,23,10,50,13.00
2015,05,23,10,51,13.00
2015,05,23,10,52,13.10
2015,05,23,10,53,13.10
2015,05,23,10,54,13.10
2015,05,23,10,55,13.20
2015,05,23,10,56,13.20
2015,05,23,10,57,13.20
2015,05,23,10,58,13.20
2015,05,23,10,59,13.30
2015,05,23,11,00,13.30
2015,05,23,11,01,13.30
2015,05,23,11,02,13.40
2015,05,23,11,03,13.40
2015,05,23,11,04,13.40
2015,05,23,11,05,13.40
2015,05,23,11,06,13.40
2015,05,23,11,07,13.40
2015,05,23,11,08,13.40
2015,05,23,11,09,13.30
2015,05,23,11,10,13.30
2015,05,23,11,11,13.30
2015,05,23,11,12,13.30
2015,05,23,11,13,13.30
2015,05,23,11,14,13.30
2015,05,23,11,15,13.30
2015,05,23,11,16,13.30
2015,05,23,11,17,13.30
2015,05,23,11,18,13.30
2015,05,23,11,19,13.40
2015,05,23,11,20,13.40
2015,05,23,11,21,13.40
2015,05,23,11,22,13.40
2015,05,23,11,23,13.30
2015,05,23,11,24,13.30
2015,05,23,11,25,13.30
2015,05,23,11,26,13.30
2015,05,23,11,27,13.20
2015,05,23,11,28,13.20
2015,05,23,11,29,13.20
2015,05,23,11,30,13.20
2015,05,23,11,31,13.10
2015,05,23,11,32,12.90
2015,05,23,11,33,12.80
2015,05,23,11,34,12.80
2015,05,23,11,35,12.70
2015,05,23,11,36,12.70
2015,05,23,11,37,12.70
2015,05,23,11,38,12.70
2015,05,23,11,39,12.60
2015,05,23,11,40,12.60
2015,05,23,11,41,12.60
2015,05,23,11,42,12.50
2015,05,23,11,43,12.50
2015,05,23,11,44,12.40
2015,05,23,11,45,12.40
2015,05,23,11,46,12.40
2015,05,23,11,47,12.30
2015,05,23,11,48,12.20
2015,05,23,11,49,12.20
2015,05,23,11,50,12.20
2015,05,23,11,51,12.10
2015,05,23,11,52,12.10
2015,05,23,11,53,12.10
2015,05,23,11,54,12.00
2015,05,23,11,55,12.00
2015,05,23,11,56,11.90
2015,05,23,11,57,11.80
2015,05,23,11,58,11.80
2015,05,23,11,59,11.80
2015,05,23,12,00,11.70
2015,05,23,12,01,11.70
2015,05,23,12,02,11.70
2015,05,23,12,03,11.70
2015,05,23,12,04,11.70
2015,05,23,12,05,11.70
2015,05,23,12,06,11.70
2015,05,23,12,07,11.70
2015,05,23,12,08,11.80
2015,05,23,12,09,11.80
2015,05,23,12,10,11.80
2015,05,23,12,11,11.90
2015,05,23,12,12,12.00
2015,05,23,12,13,12.10
2015,05,23,12,14,12.10
2015,05,23,12,15,12.20
2015,05,23,12,16,12.20
2015,05,23,12,17,12.20
2015,05,23,12,18,12.10
2015,05,23,12,19,12.10
2015,05,23,12,20,12.10
2015,05,23,12,21,12.00
2015,05,23,12,22,11.90
2015,05,23,12,23,11.80
2015,05,23,12,24,11.80
2015,05,23,12,25,11.70
2015,05,23,12,26,11.70
2015,05,23,12,27,11.80
2015,05,23,12,28,11.80
2015,05,23,12,29,11.90
2015,05,23,12,30,11.90
2015,05,23,12,31,11.90
2015,05,23,12,32,11.90
2015,05,23,12,33,11.80
2015,05,23,12,34,11.80
2015,05,23,12,35,11.80
2015,05,23,12,36,11.80
2015,05,23,12,37,11.70
2015,05,23,12,38,11.70
2015,05,23,12,39,11.60
2015,05,23,12,40,11.60
2015,05,23,12,41,11.60
2015,05,23,12,42,11.60
2015,05,23,12,43,11.60
2015,05,23,12,44,11.60
2015,05,23,12,45,11.60
2015,05,23,12,46,11.60
2015,05,23,12,47,11.60
2015,05,23,12,48,11.60
2015,05,23,12,49,11.60
2015,05,23,12,50,11.60
2015,05,23,12,51,11.60
2015,05,23,12,52,11.60
2015,05,23,12,53,11.60
2015,05,23,12,54,11.60
2015,05,23,12,55,11.60
2015,05,23,12,56,11.60
2015,05,23,12,57,11.60
2015,05,23,12,58,11.50
2015,05,23,12,59,11.50
2015,05,23,13,00,11.40
2015,05,23,13,01,11.40
2015,05,23,13,02,11.40
2015,05,23,13,03,11.40
2015,05,23,13,04,11.50
2015,05,23,13,05,11.60
2015,05,23,13,06,11.70
2015,05,23,13,07,11.70
2015,05,23,13,08,11.80
2015,05,23,13,09,11.80
2015,05,23,13,10,11.80
2015,05,23,13,11,11.80
2015,05,23,13,12,11.80
2015,05,23,13,13,11.70
2015,05,23,13,14,11.70
2015,05,23,13,15,11.60
2015,05,23,13,16,11.60
2015,05,23,13,17,11.60
2015,05,23,13,18,11.60
2015,05,23,13,19,11.60
2015,05,23,13,20,11.60
2015,05,23,13,21,11.70
2015,05,23,13,22,11.70
2015,05,23,13,23,11.80
2015,05,23,13,24,11.80
2015,05,23,13,25,11.80
2015,05,23,13,26,11.80
2015,05,23,13,27,11.80
2015,05,23,13,28,11.80
2015,05,23,13,29,11.80
2015,05,23,13,30,11.80
2015,05,23,13,31,11.80
2015,05,23,13,32,11.80
2015,05,23,13,33,11.80
2015,05,23,13,34,11.80
2015,05,23,13,35,11.80
2015,05,23,13,36,11.70
2015,05,23,13,37,11.70
2015,05,23,13,38,11.70
2015,05,23,13,39,11.70
2015,05,23,13,40,11.70
2015,05,23,13,41,11.80
2015,05,23,13,42,11.80
2015,05,23,13,43,11.90
2015,05,23,13,44,11.90
2015,05,23,13,45,11.90
2015,05,23,13,46,11.90
2015,05,23,13,47,12.00
2015,05,23,13,48,12.10
2015,05,23,13,49,12.20
2015,05,23,13,50,12.20
2015,05,23,13,51,12.30
2015,05,23,13,52,12.40
2015,05,23,13,53,12.50
2015,05,23,13,54,12.70
2015,05,23,13,55,12.70
2015,05,23,13,56,12.70
2015,05,23,13,57,12.70
2015,05,23,13,58,12.70
2015,05,23,13,59,12.70
2015,05,23,14,00,12.60
2015,05,23,14,01,12.50
2015,05,23,14,02,12.40
2015,05,23,14,03,12.20
2015,05,23,14,04,12.10
2015,05,23,14,05,12.00
2015,05,23,14,06,11.90
2015,05,23,14,07,11.90
2015,05,23,14,08,11.80
2015,05,23,14,09,11.70
2015,05,23,14,10,11.60
2015,05,23,14,11,11.60
2015,05,23,14,12,11.60
2015,05,23,14,13,11.70
2015,05,23,14,14,11.70
2015,05,23,14,15,11.70
2015,05,23,14,16,11.70
2015,05,23,14,17,11.70
2015,05,23,14,18,11.70
2015,05,23,14,19,11.60
2015,05,23,14,20,11.60
2015,05,23,14,21,11.70
2015,05,23,14,22,11.70
2015,05,23,14,23,11.70
2015,05,23,14,24,11.70
2015,05,23,14,25,11.70
2015,05,23,14,26,11.60
2015,05,23,14,27,11.60
2015,05,23,14,28,11.60
2015,05,23,14,29,11.70
2015,05,23,14,30,11.80
2015,05,23,14,31,11.80
2015,05,23,14,32,11.80
2015,05,23,14,33,11.80
2015,05,23,14,34,11.80
2015,05,23,14,35,11.80
2015,05,23,14,36,11.70
2015,05,23,14,37,11.70
2015,05,23,14,38,11.70
2015,05,23,14,39,11.70
2015,05,23,14,40,11.70
2015,05,23,14,41,11.70
2015,05,23,14,42,11.80
2015,05,23,14,43,11.80
2015,05,23,14,44,11.90
2015,05,23,14,45,11.90
2015,05,23,14,46,12.00
2015,05,23,14,47,12.00
2015,05,23,14,48,12.10
2015,05,23,14,49,12.00
2015,05,23,14,50,12.00
2015,05,23,14,51,11.90
2015,05,23,14,52,11.80
2015,05,23,14,53,11.80
2015,05,23,14,54,11.80
2015,05,23,14,55,11.80
2015,05,23,14,56,11.90
2015,05,23,14,57,12.00
2015,05,23,14,58,12.10
2015,05,23,14,59,12.20
2015,05,23,15,00,12.30
2015,05,23,15,01,12.50
2015,05,23,15,02,12.60
2015,05,23,15,03,12.70
2015,05,23,15,04,12.90
2015,05,23,15,05,12.90
2015,05,23,15,06,12.90
2015,05,23,15,07,13.00
2015,05,23,15,08,13.00
2015,05,23,15,09,13.10
2015,05,23,15,10,13.10
2015,05,23,15,11,13.20
2015,05,23,15,12,13.20
2015,05,23,15,13,13.30
2015,05,23,15,14,13.30
2015,05,23,15,15,13.20
2015,05,23,15,16,13.20
2015,05,23,15,17,13.20
2015,05,23,15,18,13.20
2015,05,23,15,19,13.20
2015,05,23,15,20,13.30
2015,05,23,15,21,13.30
2015,05,23,15,22,13.40
2015,05,23,15,23,13.50
2015,05,23,15,24,13.50
2015,05,23,15,25,13.50
2015,05,23,15,26,13.50
2015,05,23,15,27,13.50
2015,05,23,15,28,13.50
2015,05,23,15,29,13.50
2015,05,23,15,30,13.40
2015,05,23,15,31,13.40
2015,05,23,15,32,13.40
2015,05,23,15,33,13.40
2015,05,23,15,34,13.40
2015,05,23,15,35,13.50
2015,05,23,15,36,13.50
2015,05,23,15,37,13.60
2015,05,23,15,38,13.70
2015,05,23,15,39,13.80
2015,05,23,15,40,13.90
2015,05,23,15,41,14.00
2015,05,23,15,42,14.00
2015,05,23,15,43,14.10
2015,05,23,15,44,14.10
2015,05,23,15,45,14.10
2015,05,23,15,46,14.20
2015,05,23,15,47,14.20
2015,05,23,15,48,14.30
2015,05,23,15,49,14.40
2015,05,23,15,50,14.50
2015,05,23,15,51,14.60
2015,05,23,15,52,14.60
2015,05,23,15,53,14.70
2015,05,23,15,54,14.70
2015,05,23,15,55,14.80
2015,05,23,15,56,14.80
2015,05,23,15,57,14.80
2015,05,23,15,58,14.80
2015,05,23,15,59,14.90
2015,05,23,16,00,15.00
2015,05,23,16,01,15.10
2015,05,23,16,02,15.10
2015,05,23,16,03,15.20
2015,05,23,16,04,15.20
2015,05,23,16,05,15.20
2015,05,23,16,06,15.30
2015,05,23,16,07,15.30
2015,05,23,16,08,15.30
2015,05,23,16,09,15.30
2015,05,23,16,10,15.30
2015,05,23,16,11,15.30
2015,05,23,16,12,15.30
2015,05,23,16,13,15.30
2015,05,23,16,14,15.40
2015,05,23,16,15,15.40
2015,05,23,16,16,15.50
2015,05,23,16,17,15.50
2015,05,23,16,18,15.60
2015,05,23,16,19,15.50
2015,05,23,16,20,15.50
2015,05,23,16,21,15.40
2015,05,23,16,22,15.40
2015,05,23,16,23,15.50
2015,05,23,16,24,15.50
2015,05,23,16,25,15.60
2015,05,23,16,26,15.70
2015,05,23,16,27,15.70
2015,05,23,16,28,15.80
2015,05,23,16,29,15.80
2015,05,23,16,30,15.90
2015,05,23,16,31,15.90
2015,05,23,16,32,16.00
2015,05,23,16,33,16.00
2015,05,23,16,34,16.10
2015,05,23,16,35,16.20
2015,05,23,16,36,16.30
2015,05,23,16,37,16.30
2015,05,23,16,38,16.40
2015,05,23,16,39,16.40
2015,05,23,16,40,16.30
2015,05,23,16,41,16.20
2015,05,23,16,42,16.20
2015,05,23,16,43,16.20
2015,05,23,16,44,16.10
2015,05,23,16,45,16.20
2015,05,23,16,46,16.20
2015,05,23,16,47,16.20
2015,05,23,16,48,16.30
2015,05,23,16,49,16.30
2015,05,23,16,50,16.30
2015,05,23,16,51,16.30
2015,05,23,16,52,16.30
2015,05,23,16,53,16.40
2015,05,23,16,54,16.40
2015,05,23,16,55,16.40
2015,05,23,16,56,16.40
2015,05,23,16,57,16.50
2015,05,23,16,58,16.60
2015,05,23,16,59,16.60
2015,05,23,17,00,16.60
2015,05,23,17,01,16.60
2015,05,23,17,02,16.60
2015,05,23,17,03,16.60
2015,05,23,17,04,16.60
2015,05,23,17,05,16.70
2015,05,23,17,06,16.80
2015,05,23,17,07,16.80
2015,05,23,17,08,16.90
2015,05,23,17,09,16.90
2015,05,23,17,10,17.00
2015,05,23,17,11,17.10
2015,05,23,17,12,17.10
2015,05,23,17,13,17.10
2015,05,23,17,14,17.10
2015,05,23,17,15,17.20
2015,05,23,17,16,17.20
2015,05,23,17,17,17.30
2015,05,23,17,18,17.30
2015,05,23,17,19,17.40
2015,05,23,17,20,17.50
2015,05,23,17,21,17.60